GW2402 Weather Reports


Display with metric or nautical units.
time (UTC)temp
F
wind
direction
speed
MPH
gust
MPH
rain 1hr
in
rain 24hr
in
rain mn
in
humidity
%
barometer
mb
20260906074549 82 0 0.0 1.0 0.00 0.00 0.00 78 1012.1
20260906073055 83 0 0.0 1.0 0.00 0.00 0.00 77 1012.1
20260906071555 83 0 0.0 1.0 0.00 0.00 0.00 76 1012.2
20260906070113 83 0 0.0 3.0 0.00 0.00 0.00 76 1012.3
20260906064547 84 0 0.0 1.0 0.00 0.00 0.00 75 1012.5
20260906063056 84 338 0.0 1.0 0.00 0.00 0.00 74 1012.8
20260906061618 84 0 0.0 1.0 0.00 0.00 0.00 74 1012.9
20260906060057 85 0 0.0 1.0 0.00 0.00 0.00 74 1012.9
20260906054548 85 0 0.0 1.0 0.00 0.00 0.00 73 1012.9
20260906053051 85 0 0.0 1.0 0.00 0.00 0.00 73 1012.4
20260906051554 85 0 0.0 1.0 0.00 0.00 0.00 72 1012.8
20260906050109 86 0 0.0 1.0 0.00 0.00 0.00 72 1012.7
20260906044551 86 0 0.0 1.0 0.00 0.00 0.00 71 1012.7
20260906043108 87 0 0.0 1.0 0.00 0.00 0.00 70 1012.9
20260906041554 87 0 0.0 1.0 0.00 0.00 0.00 69 1012.7
20260906040110 87 0 0.0 1.0 0.00 0.00 0.00 69 1012.7
20260906034558 87 259 0.0 1.0 0.00 0.00 0.00 68 1012.4
20260906033052 88 0 0.0 1.0 0.00 0.00 0.00 67 1012.6
20260906031556 88 0 0.0 1.0 0.00 0.00 0.00 67 1012.4
20260906030108 88 0 0.0 1.0 0.00 0.00 0.00 66 1012.3
20260906024556 88 0 0.0 1.0 0.00 0.00 0.00 64 1011.8
20260906023115 89 0 0.0 1.0 0.00 0.00 0.00 63 1011.4
20260906021556 89 0 0.0 1.0 0.00 0.00 0.00 62 1010.7
20260906020056 90 0 0.0 1.0 0.00 0.00 0.00 60 1010.6
20260906014606 90 34 0.0 1.0 0.00 0.00 0.00 59 1010.5
20260906013049 91 0 0.0 0.0 0.00 0.00 0.00 57 1010.7
20260906011555 91 0 0.0 1.0 0.00 0.00 0.00 56 1010.3
20260906010058 91 0 0.0 1.0 0.00 0.00 0.00 55 1010.2
20260906004607 92 0 0.0 1.0 0.00 0.00 0.00 57 1010.2
20260906003053 95 129 0.0 2.0 0.00 0.00 0.00 52 1010.2
20260906001546 96 0 0.0 1.0 0.00 0.00 0.00 49 1009.9
20260906000107 97 88 0.0 1.0 0.00 0.00 0.00 46 1009.9
20260905234556 97 0 0.0 0.0 0.00 0.00 0.00 46 1009.7
20260905233051 98 0 0.0 0.0 0.00 0.00 0.00 44 1009.7
20260905231557 98 0 0.0 1.0 0.00 0.00 0.00 44 1009.8
20260905230058 98 0 0.0 0.0 0.00 0.00 0.00 44 1009.9
20260905224601 98 0 0.0 0.0 0.00 0.00 0.00 44 1009.9
20260905223056 98 0 0.0 0.0 0.00 0.00 0.00 45 1009.8
20260905221553 98 0 0.0 1.0 0.00 0.00 0.00 44 1010.1
20260905220058 99 0 0.0 1.0 0.00 0.00 0.00 44 1010.2
20260905214557 99 122 0.0 1.0 0.00 0.00 0.00 43 1010.2
20260905213056 98 0 0.0 1.0 0.00 0.00 0.00 42 1009.6
20260905211554 97 0 0.0 1.0 0.00 0.00 0.00 44 1010.3
20260905210050 98 0 0.0 2.0 0.00 0.00 0.00 42 1010.5
20260905204556 99 105 0.0 2.0 0.00 0.00 0.00 41 1010.8
20260905190100 95 16 0.0 3.0 0.00 0.00 0.00 49 1012.8
20260905184558 95 0 0.0 2.0 0.00 0.00 0.00 49 1013.0
20260905183117 94 0 0.0 2.0 0.00 0.00 0.00 49 1013.2
20260905181557 94 263 0.0 2.0 0.00 0.00 0.00 53 1013.5
20260905180049 93 281 0.0 1.0 0.00 0.00 0.00 54 1013.8
20260905174548 92 0 0.0 2.0 0.00 0.00 0.00 58 1014.1
20260905173054 92 0 0.0 3.0 0.00 0.00 0.00 57 1014.4
20260905171551 92 0 0.0 2.0 0.00 0.00 0.00 59 1014.5
20260905170050 90 0 0.0 6.0 0.00 0.00 0.00 63 1014.6
20260905164550 89 25 1.0 5.0 0.00 0.00 0.00 64 1014.5
20260905163055 89 125 0.0 2.0 0.00 0.00 0.00 66 1014.7
20260905161554 89 0 0.0 2.0 0.00 0.00 0.00 65 1014.7
20260905160048 88 0 0.0 3.0 0.00 0.00 0.00 69 1014.6
20260905154549 87 0 0.0 2.0 0.00 0.00 0.00 71 1014.5
20260905153101 86 0 0.0 1.0 0.00 0.00 0.00 76 1014.6
20260905151552 85 0 0.0 3.0 0.00 0.00 0.00 78 1014.6
20260905150057 84 0 0.0 3.0 0.00 0.00 0.00 81 1014.7
20260905144555 83 0 0.0 1.0 0.00 0.00 0.00 84 1014.7
20260905143055 82 0 0.0 0.0 0.00 0.00 0.00 87 1014.5
20260905141555 81 0 0.0 0.0 0.00 0.00 0.00 88 1014.6
20260905140107 80 0 0.0 0.0 0.00 0.00 0.00 88 1014.4
20260905134557 80 0 0.0 0.0 0.00 0.00 0.00 89 1014.4
20260905133055 79 0 0.0 0.0 0.00 0.00 0.00 89 1014.2
20260905131606 79 0 0.0 0.0 0.00 0.00 0.00 90 1013.9
20260905130051 78 0 0.0 0.0 0.00 0.00 0.00 91 1014.0
20260905124557 78 0 0.0 0.0 0.00 0.00 0.00 91 1013.8
20260905123057 77 0 0.0 0.0 0.00 0.00 0.00 91 1013.6
20260905121559 78 0 0.0 0.0 0.00 0.00 0.00 91 1013.4
20260905120107 78 0 0.0 0.0 0.00 0.00 0.00 90 1013.2
20260905114554 78 0 0.0 0.0 0.00 0.00 0.00 90 1013.1
20260905113051 78 0 0.0 0.0 0.00 0.00 0.00 90 1013.1
20260905111606 78 0 0.0 0.0 0.00 0.00 0.00 90 1013.2
20260905110059 78 0 0.0 0.0 0.00 0.00 0.00 90 1013.1
20260905104555 78 0 0.0 0.0 0.00 0.00 0.00 90 1012.9
20260905103050 78 0 0.0 0.0 0.00 0.00 0.00 90 1012.8
20260905101602 78 0 0.0 0.0 0.00 0.00 0.00 90 1013.1
20260905100059 78 0 0.0 0.0 0.00 0.00 0.00 90 1012.6
20260905094557 79 0 0.0 0.0 0.00 0.00 0.00 89 1012.6
20260905093051 79 0 0.0 0.0 0.00 0.00 0.00 89 1012.5
20260905091558 79 0 0.0 0.0 0.00 0.00 0.00 88 1012.8
20260905090055 79 0 0.0 0.0 0.00 0.00 0.00 88 1012.9
20260905084606 79 0 0.0 0.0 0.00 0.00 0.00 87 1012.8
20260905083051 79 0 0.0 0.0 0.00 0.00 0.00 87 1013.0
20260905081556 79 0 0.0 0.0 0.00 0.00 0.00 87 1013.0
20260905080056 80 0 0.0 0.0 0.00 0.00 0.00 87 1013.2